Latest Weather Observations for Gove Airport

IDD60801

Issued at 7:31 pm CST Tuesday 27 January 2015 (issued every 30 minutes, with the page automatically refreshed every 10 minutes)

About weather observations | Map of weather stations | Latest weather observations for NT | Other Formats
Station Details ID: 014508 Name: GOVE AIRPORT Lat: -12.27 Lon: 136.82 Height: 51.6 m
Data from the previous 72 hours. | See also: Recent months at Gove Airport
Date/Time
CST
Temp
°C
App
Temp
°C
Dew
Point
Rel
Hum
%
Delta-T
°C
Wind Press
QNH
hPa
Press
MSL
hPa
Rain
since 9 am
mm
Dir
 
Spd
km/h
Gust
km/h
Spd
kts
Gust
kts
27/07:05pm 26.8 31.5 26.1 96 0.5 NNE 13 17 7 9 1004.2 - 12.6
27/07:00pm 26.9 31.6 26.1 95 0.6 NNE 13 17 7 9 1004.0 - 12.4
27/06:48pm 26.7 31.6 25.9 95 0.6 E 11 13 6 7 1003.6 - 12.2
27/06:30pm 26.8 31.0 26.0 95 0.6 SSE 15 20 8 11 1003.2 - 7.0
27/06:26pm 27.1 32.1 26.0 94 0.8 SSE 11 19 6 10 1003.3 - 2.6
27/06:19pm 27.6 32.7 26.1 91 1.1 SSE 11 19 6 10 1003.3 - 1.4
27/05:30pm 30.8 36.8 26.0 75 3.4 SSW 6 9 3 5 1002.7 - 0.2
27/05:00pm 31.0 36.6 25.5 72 3.9 SSW 6 9 3 5 1002.5 - 0.2
27/04:30pm 30.9 35.9 25.4 72 3.9 SSE 9 13 5 7 1002.4 - 0.2
27/04:00pm 30.1 34.9 25.7 77 3.1 SSE 11 17 6 9 1002.2 - 0.2
27/03:30pm 32.2 34.9 24.1 62 5.7 WNW 17 26 9 14 1002.3 - 0.2
27/03:00pm 32.4 34.7 24.5 63 5.6 NW 20 28 11 15 1002.7 1002.4 0.2
27/02:30pm 31.9 35.5 25.0 67 4.9 WNW 15 24 8 13 1003.1 - 0.2
27/02:00pm 31.7 34.5 23.7 62 5.6 W 15 17 8 9 1003.8 - 0.2
27/01:30pm 31.7 34.0 24.1 64 5.3 NW 19 24 10 13 1004.2 - 0.2
27/01:00pm 32.0 34.7 24.2 63 5.5 NNW 17 26 9 14 1004.8 - 0.2
27/12:30pm 31.4 33.9 23.8 64 5.3 NW 17 28 9 15 1005.4 - 0.2
27/12:00pm 31.1 34.6 24.2 66 4.8 NW 13 24 7 13 1006.0 1005.7 0.2
27/11:30am 30.4 33.7 23.8 68 4.6 WNW 13 22 7 12 1006.5 - 0.2
27/11:00am 29.2 32.6 24.0 73 3.6 W 13 20 7 11 1006.8 - 0.2
27/10:30am 28.7 32.0 23.9 75 3.3 W 13 19 7 10 1006.7 - 0.0
27/10:00am 27.8 31.4 24.4 82 2.4 W 13 20 7 11 1007.0 - 0.0
27/09:30am 27.5 31.4 24.9 86 1.8 WNW 13 19 7 10 1007.3 - 0.0
27/09:00am 27.3 30.5 24.4 84 2.0 NW 15 20 8 11 1007.0 1006.7 53.6
27/08:30am 26.8 30.5 24.5 87 1.6 WNW 13 19 7 10 1007.1 - 53.6
27/08:00am 26.6 29.8 24.3 87 1.6 WNW 15 22 8 12 1007.0 - 53.6
27/07:30am 26.5 28.7 24.0 86 1.7 NW 19 30 10 16 1007.0 - 53.6
27/07:00am 26.3 28.7 24.6 90 1.2 NW 20 26 11 14 1007.1 - 53.6
27/06:30am 26.3 28.6 24.4 89 1.3 NW 20 30 11 16 1006.8 - 53.6
27/05:30am 26.0 30.2 24.7 92 0.9 WNW 11 17 6 9 1005.9 - 53.6
27/05:00am 25.8 29.9 24.5 92 0.9 WNW 11 15 6 8 1005.8 - 53.6
27/04:30am 26.0 30.2 24.7 92 0.9 NW 11 15 6 8 1005.6 - 53.6
27/04:00am 26.1 30.5 25.1 94 0.7 WNW 11 17 6 9 1005.1 - 53.6
27/03:30am 25.8 32.1 25.4 98 0.3 N 2 9 1 5 1005.6 - 53.6
27/03:29am 25.8 32.1 25.4 98 0.3 N 2 9 1 5 1005.6 - 53.6
27/03:00am 25.8 32.4 25.2 96 0.4 CALM 0 0 0 0 1005.3 1005.0 53.6
27/02:57am 25.8 32.3 25.1 96 0.5 CALM 0 0 0 0 1005.3 - 53.6
27/02:30am 25.5 31.1 24.8 96 0.5 NNW 4 6 2 3 1005.3 - 53.6
27/02:00am 25.3 30.8 24.7 96 0.4 N 4 6 2 3 1005.9 - 53.6
27/01:30am 25.3 31.6 24.7 96 0.4 CALM 0 0 0 0 1006.4 - 53.6
27/01:00am 25.3 31.5 24.6 96 0.5 CALM 0 6 0 3 1006.8 - 53.6
27/12:30am 25.0 30.7 24.4 96 0.4 S 2 9 1 5 1007.2 - 53.6
27/12:00am 25.0 31.2 24.6 98 0.3 CALM 0 0 0 0 1007.6 1007.3 53.6
 
Date/Time
CST
Temp
°C
App
Temp
°C
Dew
Point
Rel
Hum
%
Delta-T
°C
Wind Press
QNH
hPa
Press
MSL
hPa
Rain
since 9 am
mm
Dir
 
Spd
km/h
Gust
km/h
Spd
kts
Gust
kts
26/11:30pm 25.0 31.2 24.6 98 0.3 CALM 0 0 0 0 1008.0 - 53.6
26/11:00pm 25.0 30.7 24.4 96 0.4 S 2 6 1 3 1008.0 - 53.6
26/10:30pm 24.8 30.9 24.4 98 0.3 CALM 0 4 0 2 1008.0 - 53.6
26/10:00pm 25.0 30.6 24.3 96 0.5 E 2 9 1 5 1007.7 - 53.6
26/09:30pm 25.0 29.7 24.3 96 0.5 E 7 9 4 5 1007.5 - 53.6
26/09:00pm 24.9 29.3 24.5 98 0.3 SE 9 11 5 6 1007.2 1006.9 53.6
26/08:55pm 24.9 29.2 24.3 96 0.4 ESE 9 11 5 6 1007.1 - 53.6
26/08:30pm 25.0 29.5 24.6 98 0.3 S 9 20 5 11 1007.6 - 51.8
26/08:00pm 25.2 28.6 24.6 96 0.4 S 15 24 8 13 1007.5 - 47.6
26/07:49pm 25.7 29.4 25.1 96 0.4 SSW 15 24 8 13 1007.2 - 46.0
26/07:30pm 25.8 30.3 25.2 96 0.4 S 11 19 6 10 1006.7 - 46.0
26/07:13pm 25.6 30.3 25.0 96 0.4 SSW 9 11 5 6 1006.6 - 45.8
26/07:00pm 25.6 30.3 25.0 96 0.4 SSW 9 13 5 7 1006.5 - 45.4
26/06:53pm 25.6 30.3 24.9 96 0.5 SW 9 11 5 6 1006.6 - 44.8
26/06:30pm 25.4 30.7 25.0 98 0.3 W 6 7 3 4 1006.1 - 43.0
26/06:19pm 25.5 30.6 24.9 96 0.4 NE 7 11 4 6 1005.8 - 42.8
26/06:00pm 25.6 30.7 25.0 96 0.4 N 7 11 4 6 1006.1 1005.8 40.0
26/05:27pm 25.7 28.5 25.0 96 0.5 E 19 22 10 12 1005.6 - 37.2
26/05:14pm 25.8 28.6 25.2 96 0.4 E 20 24 11 13 1005.4 - 36.6
26/05:00pm 25.9 29.3 25.2 96 0.5 E 17 26 9 14 1005.6 - 29.0
26/04:50pm 26.0 30.0 25.1 95 0.6 S 13 28 7 15 1005.4 - 15.4
26/04:36pm 26.2 29.6 25.2 94 0.7 SSE 17 28 9 15 1004.9 - 3.0
26/04:27pm 28.3 33.2 25.3 84 2.1 S 9 17 5 9 1005.1 - 0.0
26/04:00pm 30.8 34.8 25.0 71 4.1 SSE 13 20 7 11 1004.6 - 0.0
26/03:30pm 32.4 34.4 24.6 63 5.5 NNW 22 32 12 17 1004.7 - 0.0
26/03:00pm 32.4 34.2 23.2 58 6.4 WNW 19 28 10 15 1005.1 1004.8 0.0
26/02:30pm 33.5 35.2 23.1 54 7.2 WNW 19 28 10 15 1005.2 - 0.0
26/02:00pm 33.2 34.0 23.1 55 7.0 WNW 24 33 13 18 1005.6 - 0.0
26/01:30pm 33.3 35.1 23.5 56 6.8 NW 20 32 11 17 1005.9 - 0.0
26/01:00pm 33.3 35.2 23.7 57 6.7 WNW 20 28 11 15 1006.5 - 0.0
26/12:30pm 32.7 34.5 23.3 57 6.5 WNW 19 28 10 15 1007.1 - 0.0
26/12:00pm 32.3 34.3 24.0 61 5.8 NW 20 26 11 14 1007.7 1007.4 0.0
26/11:30am 32.0 32.7 23.7 61 5.8 NW 26 35 14 19 1008.1 - 0.0
26/11:00am 32.0 33.9 23.7 61 5.8 NW 20 30 11 16 1008.6 - 0.0
26/10:30am 30.8 33.1 23.4 64 5.1 WNW 17 24 9 13 1008.8 - 0.0
26/10:00am 30.6 33.2 24.0 68 4.6 NW 17 24 9 13 1008.9 - 0.0
26/09:30am 30.3 33.7 24.6 71 4.0 WNW 15 22 8 12 1008.9 - 0.0
26/09:00am 30.1 33.7 25.0 74 3.6 WNW 15 22 8 12 1009.0 1008.6 0.0
26/08:30am 29.0 32.6 24.4 76 3.2 WNW 13 24 7 13 1009.2 - 0.0
26/08:00am 28.6 32.6 25.0 81 2.5 NW 13 17 7 9 1009.1 - 0.0
26/07:30am 28.0 32.7 24.9 83 2.2 NW 9 13 5 7 1009.0 - 0.0
26/07:00am 27.0 32.1 24.6 87 1.7 WNW 6 11 3 6 1008.6 - 0.0
26/06:30am 26.5 30.8 24.3 88 1.5 W 9 13 5 7 1008.3 - 0.0
26/06:00am 26.7 30.5 24.1 86 1.8 W 11 17 6 9 1008.0 1007.7 0.0
26/05:30am 26.7 30.4 23.9 84 1.9 WNW 11 17 6 9 1007.7 - 0.0
26/05:00am 27.3 30.7 24.1 83 2.2 WNW 13 19 7 10 1007.6 - 0.0
26/04:30am 27.5 31.4 24.9 86 1.8 WNW 13 19 7 10 1007.6 - 0.0
26/04:00am 27.5 31.4 24.9 86 1.8 WNW 13 17 7 9 1007.5 - 0.0
26/03:30am 27.5 31.0 24.9 86 1.8 WNW 15 19 8 10 1007.6 - 0.0
26/03:00am 27.5 31.4 24.9 86 1.8 WNW 13 19 7 10 1007.3 1007.0 0.0
26/02:30am 27.5 31.0 24.9 86 1.8 WNW 15 20 8 11 1007.4 - 0.0
26/02:00am 27.7 30.7 24.7 84 2.1 WNW 17 26 9 14 1007.5 - 0.0
26/01:30am 27.8 30.5 24.8 84 2.1 NW 19 28 10 15 1007.7 - 0.0
26/01:00am 27.5 31.2 25.1 87 1.7 NW 15 22 8 12 1008.5 - 0.0
26/12:30am 27.5 30.8 25.1 87 1.7 NW 17 20 9 11 1009.0 - 0.0
26/12:00am 27.6 31.6 25.0 86 1.8 NW 13 17 7 9 1009.2 1008.8 0.0
 
Date/Time
CST
Temp
°C
App
Temp
°C
Dew
Point
Rel
Hum
%
Delta-T
°C
Wind Press
QNH
hPa
Press
MSL
hPa
Rain
since 9 am
mm
Dir
 
Spd
km/h
Gust
km/h
Spd
kts
Gust
kts
25/11:30pm 27.5 31.4 24.9 86 1.8 WNW 13 17 7 9 1009.6 - 0.0
25/11:00pm 27.7 31.5 24.7 84 2.1 WNW 13 19 7 10 1009.5 - 0.0
25/10:30pm 27.6 31.3 24.6 84 2.1 WNW 13 17 7 9 1009.5 - 0.0
25/10:00pm 27.8 31.1 24.5 82 2.3 NW 15 20 8 11 1009.2 - 0.0
25/09:30pm 28.0 31.2 24.3 80 2.6 NW 15 20 8 11 1008.9 - 0.0
25/09:00pm 28.0 30.8 24.3 80 2.6 NW 17 24 9 13 1008.7 1008.3 0.0
25/08:30pm 28.3 31.1 24.3 79 2.8 NW 17 22 9 12 1008.1 - 0.0
25/08:00pm 28.4 30.6 24.2 78 2.9 NW 20 30 11 16 1007.6 - 0.0
25/07:30pm 28.5 30.7 24.2 77 3.0 NW 20 28 11 15 1007.0 - 0.0
25/07:00pm 28.9 30.2 23.4 72 3.8 NW 22 30 12 16 1006.8 - 0.0
25/06:30pm 29.6 30.2 23.4 69 4.3 NW 26 39 14 21 1006.3 - 0.0
25/06:00pm 30.1 29.8 23.8 69 4.4 NNW 32 39 17 21 1005.9 1005.6 0.0
25/05:30pm 31.5 32.6 23.1 61 5.8 NW 22 30 12 16 1005.6 - 0.0
25/05:00pm 31.9 32.7 23.2 60 6.0 NW 24 35 13 19 1005.6 - 0.0
25/04:30pm 32.5 32.7 22.8 56 6.7 NW 26 35 14 19 1005.7 - 0.0
25/04:00pm 32.9 33.0 23.2 56 6.7 NW 28 35 15 19 1005.8 - 0.0
25/03:30pm 32.3 33.0 22.9 57 6.5 WNW 24 35 13 19 1006.0 - 0.0
25/03:00pm 32.6 33.4 23.2 57 6.5 NW 24 41 13 22 1006.4 1006.1 0.0
25/02:30pm 33.2 34.1 23.9 58 6.5 NW 26 37 14 20 1007.0 - 0.0
25/02:00pm 32.6 33.2 23.4 58 6.4 NW 26 41 14 22 1007.5 - 0.0
25/01:30pm 32.7 32.8 23.3 57 6.5 NW 28 41 15 22 1007.9 - 0.0
25/01:00pm 32.8 33.0 23.5 58 6.5 NW 28 41 15 22 1008.2 - 0.0
25/12:30pm 31.3 31.5 23.5 63 5.4 NW 28 41 15 22 1008.8 - 0.0
25/12:00pm 31.9 32.8 23.4 60 5.9 NW 24 43 13 23 1009.0 1008.6 0.0
25/11:30am 31.2 32.0 23.2 62 5.5 NW 24 35 13 19 1009.4 - 0.0
25/11:00am 30.8 30.9 22.6 61 5.6 NW 26 35 14 19 1009.8 - 0.0
25/10:30am 30.7 32.5 23.5 65 5.0 NW 20 28 11 15 1010.1 - 0.0
25/10:00am 30.3 31.8 23.7 68 4.6 NW 22 33 12 18 1010.2 - 0.0
25/09:30am 29.5 31.3 23.6 70 4.1 NW 20 30 11 16 1010.2 - 0.0
25/09:00am 28.8 30.6 23.6 73 3.6 NW 20 28 11 15 1010.3 1009.9 1.2
25/08:30am 28.6 31.7 23.5 74 3.5 W 13 20 7 11 1010.1 - 1.2
25/08:00am 28.3 31.9 23.7 76 3.2 WNW 11 19 6 10 1009.8 - 1.2
25/07:30am 27.5 30.5 24.0 81 2.4 WNW 15 20 8 11 1009.8 - 1.2
25/07:00am 27.1 30.4 24.5 86 1.8 NW 15 20 8 11 1009.4 - 1.2
25/06:30am 27.2 30.1 24.5 85 1.9 NW 17 22 9 12 1009.0 - 1.2
25/06:00am 27.3 30.1 24.3 84 2.1 NW 17 24 9 13 1008.8 1008.4 1.2
25/05:30am 27.2 29.9 24.2 84 2.1 NW 17 24 9 13 1008.2 - 1.2
25/05:00am 27.2 29.8 24.6 86 1.8 NW 19 24 10 13 1007.4 - 1.2
25/04:30am 27.0 29.7 24.7 87 1.6 NW 19 22 10 12 1007.0 - 1.2
25/04:00am 27.2 29.2 24.6 86 1.8 NW 22 32 12 17 1006.8 - 1.2
25/03:30am 27.3 29.5 24.3 84 2.1 NW 20 28 11 15 1007.0 - 1.2
25/03:00am 27.2 29.6 24.3 84 2.0 NW 19 28 10 15 1006.8 1006.5 1.2
25/02:30am 27.3 29.6 24.4 84 2.0 NW 20 30 11 16 1006.7 - 1.2
25/02:00am 27.1 29.6 24.5 86 1.8 NW 19 26 10 14 1006.9 - 1.2
25/01:30am 27.1 29.4 24.4 85 1.9 NW 20 26 11 14 1007.1 - 1.2
25/01:00am 27.1 30.5 24.7 87 1.7 NW 15 20 8 11 1007.4 - 1.2
25/12:30am 27.3 30.5 24.4 84 2.0 NW 15 20 8 11 1007.9 - 1.2
25/12:00am 27.3 29.9 24.6 85 1.9 NW 19 22 10 12 1008.5 1008.1 1.2
 
Date/Time
CST
Temp
°C
App
Temp
°C
Dew
Point
Rel
Hum
%
Delta-T
°C
Wind Press
QNH
hPa
Press
MSL
hPa
Rain
since 9 am
mm
Dir
 
Spd
km/h
Gust
km/h
Spd
kts
Gust
kts
24/11:30pm 27.3 30.7 24.6 85 1.9 NW 15 20 8 11 1008.7 - 1.2
24/11:00pm 27.3 30.5 24.4 84 2.0 WNW 15 19 8 10 1009.0 - 1.2
24/10:30pm 27.3 30.9 24.4 84 2.0 WNW 13 20 7 11 1009.1 - 1.2
24/10:00pm 27.4 30.3 24.5 84 2.0 WNW 17 24 9 13 1009.1 - 1.2
24/09:30pm 27.3 30.3 24.7 86 1.8 NW 17 22 9 12 1009.1 - 1.2
24/09:00pm 27.5 30.6 24.8 85 1.9 NW 17 24 9 13 1008.9 1008.5 1.2
24/08:30pm 27.5 30.0 24.8 85 1.9 NW 20 24 11 13 1008.7 - 1.2
24/08:23pm 27.5 30.0 24.8 85 1.9 NW 20 26 11 14 1008.6 - 1.2
24/08:00pm 27.0 31.2 25.3 90 1.2 NW 13 19 7 10 1008.2 - 1.2

Other Formats:

Comma delimited format used in spreadsheet applications
http://www.bom.gov.au/fwo/IDD60801/IDD60801.94150.axf

JavaScript Object Notation format (JSON) in row-major order
http://www.bom.gov.au/fwo/IDD60801/IDD60801.94150.json